AE7MK-13 Weather Reports


time (UTC)temp
C
wind
direction
speed
KPH
gust
KPH
rain 1hr
cm
rain 24hr
cm
rain mn
cm
humidity
%
barometer
mb
20260505005004 22 319 3.2 9.7 0.00 0.00 0.00 25 1010.8
20260505004003 22 311 0.0 8.0 0.00 0.00 0.00 26 1010.8
20260505003003 21 357 1.6 8.0 0.00 0.00 0.00 29 1010.8
20260505002003 21 300 4.8 6.4 0.00 0.00 0.00 30 1010.8
20260505001214 21 292 1.6 6.4 0.00 0.00 0.00 31 1010.8
20260505000003 21 293 0.0 4.8 0.00 0.00 0.00 29 1010.7
20260504235003 22 0 0.0 0.0 0.00 0.00 0.00 28 1010.8
20260504234003 22 285 0.0 4.8 0.00 0.00 0.00 27 1010.8
20260504233003 22 294 0.0 6.4 0.00 0.00 0.00 25 1010.8
20260504232003 22 310 0.0 4.8 0.00 0.00 0.00 25 1010.9
20260504231003 22 311 1.6 8.0 0.00 0.00 0.00 25 1010.9
20260504230215 22 304 3.2 9.7 0.00 0.00 0.00 25 1011.0
20260504225213 22 291 6.4 14.5 0.00 0.00 0.00 25 1011.0
20260504224003 23 254 8.0 17.7 0.00 0.00 0.00 24 1011.0
20260504223003 23 239 6.4 24.1 0.00 0.00 0.00 24 1011.1
20260504222003 22 233 6.4 19.3 0.00 0.00 0.00 24 1011.2
20260504221003 22 249 8.0 19.3 0.00 0.00 0.00 24 1011.2
20260504220003 23 232 6.4 14.5 0.00 0.00 0.00 26 1011.3
20260504215003 22 272 4.8 16.1 0.00 0.00 0.00 25 1011.4
20260504214003 22 241 6.4 16.1 0.00 0.00 0.00 25 1011.5
20260504213212 22 237 6.4 17.7 0.00 0.00 0.00 25 1011.6
20260504212003 22 241 4.8 12.9 0.00 0.00 0.00 25 1011.6
20260504211003 22 264 9.7 19.3 0.00 0.00 0.00 25 1011.8
20260504210003 22 197 8.0 17.7 0.00 0.00 0.00 25 1011.8
20260504205003 22 255 6.4 16.1 0.00 0.00 0.00 25 1012.0
20260504204003 22 271 4.8 17.7 0.00 0.00 0.00 26 1011.9
20260504203003 22 248 6.4 14.5 0.00 0.00 0.00 24 1012.1
20260504202003 22 156 6.4 16.1 0.00 0.00 0.00 27 1012.1
20260504201003 21 222 6.4 17.7 0.00 0.00 0.00 25 1012.3
20260504200004 22 231 6.4 14.5 0.00 0.00 0.00 24 1012.4
20260504195214 21 266 6.4 12.9 0.00 0.00 0.00 24 1012.4
20260504194214 22 239 4.8 17.7 0.00 0.00 0.00 24 1012.5
20260504193003 22 278 3.2 12.9 0.00 0.00 0.00 24 1012.6
20260504192214 21 343 4.8 12.9 0.00 0.00 0.00 23 1012.6
20260504191003 21 48 11.3 20.9 0.00 0.00 0.00 25 1012.5
20260504190003 21 41 8.0 22.5 0.00 0.00 0.00 24 1012.7
20260504185003 21 23 6.4 12.9 0.00 0.00 0.00 23 1012.7
20260504184003 21 16 8.0 17.7 0.00 0.00 0.00 25 1012.8
20260504183004 21 9 9.7 19.3 0.00 0.00 0.00 23 1012.7
20260504182003 20 11 12.9 25.7 0.00 0.00 0.00 24 1012.9
20260504181003 20 16 11.3 24.1 0.00 0.00 0.00 25 1012.9
20260504180003 20 28 14.5 25.7 0.00 0.00 0.00 25 1013.0
20260504175003 20 16 11.3 24.1 0.00 0.00 0.00 25 1012.9
20260504174003 20 13 12.9 20.9 0.00 0.00 0.00 26 1012.9
20260504173003 20 11 11.3 24.1 0.00 0.00 0.00 25 1012.9
20260504172003 20 13 12.9 22.5 0.00 0.00 0.00 27 1012.7
20260504171003 20 9 12.9 29.0 0.00 0.00 0.00 24 1012.7
20260504170213 20 3 14.5 25.7 0.00 0.00 0.00 25 1012.8
20260504160215 19 350 12.9 20.9 0.00 0.00 0.00 25 1012.7
20260504151003 18 353 8.0 16.1 0.00 0.00 0.00 27 1012.8
20260504141003 17 330 3.2 9.7 0.00 0.00 0.00 34 1012.5
20260504081003 12 352 4.8 6.4 0.00 0.00 0.00 49 1012.9
20260504060213 16 308 12.9 17.7 0.00 0.00 0.00 40 1012.9
20260504050214 17 305 14.5 17.7 0.00 0.00 0.00 37 1013.0
20260504045003 17 303 14.5 16.1 0.00 0.00 0.00 38 1013.1
20260504044003 18 297 11.3 16.1 0.00 0.00 0.00 37 1013.1
20260504043003 17 302 8.0 12.9 0.00 0.00 0.00 39 1013.2
20260504042003 14 326 4.8 6.4 0.00 0.00 0.00 47 1013.2
20260504041003 15 335 4.8 8.0 0.00 0.00 0.00 44 1013.2
20260504040003 14 335 6.4 9.7 0.00 0.00 0.00 47 1013.2
20260504035003 15 331 4.8 8.0 0.00 0.00 0.00 45 1013.0
20260504034004 16 330 3.2 4.8 0.00 0.00 0.00 43 1012.9
20260504033003 17 270 0.0 3.2 0.00 0.00 0.00 39 1012.9
20260504032003 18 262 0.0 3.2 0.00 0.00 0.00 37 1012.9
20260504031003 18 0 0.0 0.0 0.00 0.00 0.00 35 1012.9
20260504030003 20 0 0.0 0.0 0.00 0.00 0.00 33 1012.8
20260504025003 21 0 0.0 0.0 0.00 0.00 0.00 31 1012.8
20260504024003 21 243 0.0 4.8 0.00 0.00 0.00 30 1012.7
20260504023003 22 243 0.0 3.2 0.00 0.00 0.00 29 1012.7
20260504022213 22 214 0.0 1.6 0.00 0.00 0.00 29 1012.7
20260504021213 22 177 1.6 4.8 0.00 0.00 0.00 28 1012.9
20260504020003 21 159 1.6 6.4 0.00 0.00 0.00 28 1012.9
20260504015003 22 184 4.8 9.7 0.00 0.00 0.00 28 1012.9
20260504014003 22 178 6.4 12.9 0.00 0.00 0.00 27 1013.0
20260504013003 22 164 1.6 8.0 0.00 0.00 0.00 26 1013.1
20260504012003 22 217 3.2 11.3 0.00 0.00 0.00 26 1013.2
20260504011003 22 177 1.6 6.4 0.00 0.00 0.00 26 1013.3
20260504010004 22 227 4.8 12.9 0.00 0.00 0.00 25 1013.4